AD7ZD Weather Reports


time (UTC)temp
C
wind
direction
speed
KPH
gust
KPH
rain 1hr
cm
rain 24hr
cm
rain mn
cm
humidity
%
barometer
mb
20260506004621 17 147 6.4 22.5 0.00 0.71 0.71 43 1010.1
20260506004118 18 186 0.0 6.4 0.00 0.71 0.71 42 1010.2
20260506003615 18 188 8.0 8.0 0.00 0.71 0.71 42 1009.8
20260506003111 18 170 11.3 11.3 0.00 0.71 0.71 42 1010.0
20260506002607 18 152 11.3 12.9 0.00 0.71 0.71 42 1009.7
20260506002103 18 270 0.0 11.3 0.00 0.71 0.71 42 1010.0
20260506001559 18 233 6.4 9.7 0.00 0.71 0.71 41 1010.1
20260506001056 18 218 17.7 20.9 0.00 0.71 0.71 42 1009.8
20260506000554 18 123 3.2 6.4 0.00 0.71 0.71 44 1009.8
20260506000051 18 210 4.8 11.3 0.00 0.71 0.71 42 1010.0
20260505235549 17 125 3.2 9.7 0.00 0.71 0.71 44 1010.2
20260505235046 17 177 4.8 12.9 0.00 0.71 0.71 45 1010.2
20260505234543 18 220 8.0 9.7 0.00 0.71 0.71 45 1010.0
20260505234039 17 208 6.4 17.7 0.00 0.71 0.71 46 1010.2
20260505233537 17 153 11.3 14.5 0.00 0.71 0.71 44 1010.0
20260505233034 18 56 9.7 11.3 0.00 0.71 0.71 46 1010.2
20260505232532 17 11 4.8 8.0 0.00 0.71 0.71 46 1010.3
20260505232029 17 70 4.8 9.7 0.00 0.71 0.71 46 1010.1
20260505231526 17 101 0.0 8.0 0.00 0.71 0.71 47 1010.5
20260505231025 16 32 6.4 14.5 0.00 0.71 0.71 47 1010.3
20260505230522 17 53 9.7 12.9 0.00 0.71 0.71 48 1010.5
20260505230018 17 73 11.3 14.5 0.00 0.71 0.71 48 1010.6
20260505225515 17 239 0.0 4.8 0.00 0.71 0.71 46 1010.5
20260505225011 18 264 4.8 4.8 0.00 0.71 0.71 45 1010.8
20260505224508 17 240 0.0 4.8 0.00 0.71 0.71 45 1010.5
20260505224005 16 131 6.4 14.5 0.00 0.71 0.71 48 1010.5
20260505223502 16 137 11.3 19.3 0.00 0.71 0.71 49 1010.6
20260505222958 16 76 8.0 9.7 0.00 0.71 0.71 49 1010.5
20260505222455 16 206 11.3 16.1 0.00 0.71 0.71 48 1010.8
20260505221950 16 259 12.9 16.1 0.00 0.71 0.71 48 1010.8
20260505221448 16 199 4.8 11.3 0.00 0.71 0.71 51 1010.6
20260505220945 16 239 9.7 9.7 0.00 0.71 0.71 50 1010.8
20260505220442 17 213 8.0 17.7 0.00 0.71 0.71 49 1010.9
20260505215940 16 173 9.7 19.3 0.00 0.71 0.71 52 1010.9
20260505215438 16 163 9.7 12.9 0.00 0.71 0.71 53 1010.8
20260505214935 16 234 4.8 8.0 0.00 0.71 0.71 56 1010.8
20260505214433 16 152 9.7 14.5 0.00 0.71 0.71 54 1011.1
20260505213930 15 152 8.0 14.5 0.00 0.71 0.71 53 1011.2
20260505213428 15 187 4.8 14.5 0.00 0.71 0.71 53 1011.3
20260505212924 15 170 4.8 17.7 0.00 0.71 0.71 59 1011.3
20260505212421 14 347 8.0 9.7 0.00 0.71 0.71 57 1011.3
20260505211917 14 241 3.2 11.3 0.00 0.71 0.71 54 1011.4
20260505211415 15 211 4.8 6.4 0.00 0.71 0.71 59 1011.6
20260505210911 15 157 8.0 14.5 0.00 0.71 0.71 58 1011.6
20260505210408 15 151 1.6 9.7 0.00 0.71 0.71 55 1011.4
20260505205905 14 209 8.0 19.3 0.00 0.71 0.71 60 1011.6
20260505205403 13 115 9.7 17.7 0.00 0.71 0.71 58 1011.6
20260505204900 13 215 12.9 17.7 0.00 0.71 0.71 60 1011.6
20260505204357 14 196 6.4 16.1 0.00 0.71 0.71 62 1011.7
20260505203855 15 208 6.4 6.4 0.00 0.71 0.71 61 1011.7
20260505203351 14 184 6.4 12.9 0.00 0.71 0.71 62 1011.9
20260505202847 13 182 11.3 16.1 0.00 0.71 0.71 65 1011.8
20260505202344 14 152 8.0 11.3 0.00 0.71 0.71 64 1011.7
20260505201840 13 63 3.2 6.4 0.00 0.71 0.71 62 1011.8
20260505201338 13 244 4.8 4.8 0.00 0.71 0.71 66 1011.7
20260505200836 12 250 6.4 9.7 0.00 0.71 0.71 68 1011.4
20260505200332 12 222 4.8 9.7 0.00 0.71 0.71 67 1011.6
20260505195828 13 145 8.0 8.0 0.00 0.71 0.71 68 1011.7
20260505195325 12 155 6.4 11.3 0.00 0.71 0.71 68 1011.8
20260505194822 12 221 0.0 11.3 0.00 0.71 0.71 68 1011.8
20260505194320 13 169 6.4 8.0 0.00 0.71 0.71 68 1011.7
20260505193815 12 188 0.0 6.4 0.00 0.71 0.71 68 1011.8
20260505193313 12 130 6.4 6.4 0.00 0.71 0.71 71 1011.7
20260505192811 11 222 4.8 9.7 0.00 0.71 0.71 71 1012.0
20260505192310 12 206 6.4 11.3 0.00 0.71 0.71 72 1011.7
20260505191806 11 171 8.0 12.9 0.00 0.71 0.71 73 1011.8
20260505191304 11 180 3.2 12.9 0.00 0.71 0.71 73 1011.7
20260505190800 11 176 4.8 14.5 0.00 0.71 0.71 76 1011.8
20260505190256 12 208 6.4 12.9 0.00 0.71 0.71 75 1012.0
20260505185752 11 219 6.4 14.5 0.00 0.71 0.71 73 1011.9
20260505185249 11 233 4.8 12.9 0.00 0.71 0.71 75 1011.9
20260505184745 11 229 8.0 11.3 0.00 0.71 0.71 76 1012.0
20260505184242 11 186 4.8 8.0 0.00 0.71 0.71 80 1011.8
20260505183739 10 213 4.8 4.8 0.00 0.71 0.71 79 1011.9
20260505183236 10 204 8.0 9.7 0.00 0.71 0.71 80 1011.9
20260505182733 10 214 4.8 9.7 0.00 0.71 0.71 80 1011.7
20260505182230 10 202 4.8 11.3 0.00 0.71 0.71 80 1011.7
20260505181726 10 190 8.0 8.0 0.00 0.71 0.71 81 1011.6
20260505181224 10 213 6.4 8.0 0.00 0.71 0.71 81 1011.4
20260505180720 10 199 8.0 9.7 0.00 0.71 0.71 81 1011.4
20260505180217 10 225 4.8 6.4 0.00 0.71 0.71 81 1011.6
20260505175713 10 200 4.8 4.8 0.00 0.71 0.71 82 1011.6
20260505175209 10 146 3.2 4.8 0.00 0.71 0.71 83 1011.4
20260505174706 10 139 3.2 6.4 0.00 0.71 0.71 82 1011.6
20260505174203 10 171 3.2 6.4 0.00 0.71 0.71 82 1011.4
20260505173659 10 123 1.6 8.0 0.00 0.71 0.71 83 1011.1
20260505173156 10 159 6.4 6.4 0.00 0.71 0.71 83 1010.9
20260505172653 9 143 4.8 6.4 0.00 0.71 0.71 84 1011.1
20260505172150 9 158 8.0 9.7 0.00 0.71 0.71 86 1011.0
20260505171649 9 152 6.4 8.0 0.00 0.71 0.71 87 1011.0
20260505171147 9 159 8.0 11.3 0.00 0.71 0.71 88 1010.9
20260505170644 9 140 6.4 11.3 0.00 0.71 0.71 89 1010.8
20260505170141 9 139 9.7 9.7 0.00 0.71 0.71 90 1010.6
20260505165641 9 128 6.4 11.3 0.00 0.71 0.71 91 1010.8
20260505165137 8 142 4.8 8.0 0.00 0.71 0.71 91 1010.8
20260505164632 8 127 6.4 8.0 0.00 0.71 0.71 92 1010.5
20260505164130 8 111 4.8 8.0 0.00 0.71 0.71 92 1010.8
20260505163629 8 104 6.4 8.0 0.00 0.71 0.71 92 1010.6
20260505163126 8 124 6.4 6.4 0.00 0.71 0.71 93 1010.6
20260505162623 8 228 3.2 3.2 0.00 0.71 0.71 93 1010.6
20260505162121 8 150 3.2 4.8 0.00 0.71 0.71 93 1010.5
20260505161618 8 173 3.2 6.4 0.00 0.71 0.71 93 1010.4
20260505161115 8 135 3.2 6.4 0.00 0.71 0.71 93 1010.2
20260505160613 8 144 3.2 3.2 0.00 0.71 0.71 94 1010.3
20260505160110 8 198 0.0 3.2 0.00 0.71 0.71 94 1010.4
20260505153049 7 195 0.0 0.0 0.00 0.66 0.66 94 1010.2
20260505152546 7 194 1.6 1.6 0.00 0.66 0.66 94 1010.1
20260505152042 7 263 0.0 1.6 0.00 0.66 0.66 94 1010.0
20260505151537 7 203 0.0 3.2 0.00 0.66 0.66 94 1010.2
20260505151035 7 225 3.2 4.8 0.00 0.66 0.66 94 1009.8
20260505150531 7 258 4.8 4.8 0.00 0.66 0.66 94 1010.0
20260505140456 7 255 3.2 4.8 0.18 0.64 0.64 94 1009.4
20260505124909 8 63 8.0 11.3 0.48 0.28 0.28 92 1008.8
20260505124406 8 69 9.7 11.3 0.36 0.23 0.23 92 1008.8
20260505123902 8 61 11.3 16.1 0.30 0.20 0.20 92 1008.8
20260505123359 7 75 4.8 4.8 0.30 0.18 0.18 92 1008.3
20260505122855 8 65 3.2 4.8 0.13 0.15 0.15 92 1008.1
20260505122352 8 82 1.6 3.2 0.05 0.13 0.13 92 1007.9
20260505121849 8 180 1.6 3.2 0.00 0.13 0.13 92 1008.0
20260505121346 8 264 1.6 4.8 0.00 0.13 0.13 92 1007.9
20260505120842 8 246 0.0 1.6 0.00 0.13 0.13 92 1007.8
20260505120338 8 180 0.0 3.2 0.00 0.13 0.13 91 1007.8
20260505115837 8 176 3.2 6.4 0.00 0.13 0.13 91 1007.8
20260505115334 8 154 3.2 6.4 0.00 0.13 0.13 91 1007.9
20260505114832 8 157 1.6 4.8 0.00 0.13 0.13 91 1008.0
20260505114328 8 139 3.2 4.8 0.00 0.13 0.13 91 1008.0
20260505113825 8 140 1.6 4.8 0.00 0.13 0.13 91 1008.0
20260505113322 8 228 0.0 3.2 0.00 0.13 0.13 91 1007.9
20260505112817 8 294 1.6 3.2 0.05 0.13 0.13 91 1008.0
20260505112315 8 286 0.0 0.0 0.13 0.13 0.13 90 1008.0
20260505111810 8 286 0.0 0.0 0.23 0.10 0.10 90 1008.1
20260505111306 8 300 0.0 3.2 0.30 0.10 0.10 89 1008.0
20260505110802 8 286 3.2 4.8 0.23 0.05 0.05 88 1008.0
20260505110300 8 345 0.0 3.2 0.13 0.03 0.03 87 1007.9
20260505101734 8 157 0.0 4.8 0.00 0.00 0.00 83 1007.9
20260505101230 8 152 6.4 8.0 0.00 0.00 0.00 83 1007.8
20260505100726 8 147 8.0 9.7 0.00 0.00 0.00 83 1007.8
20260505100223 8 146 6.4 8.0 0.00 0.00 0.00 83 1007.8
20260505095718 8 157 0.0 1.6 0.00 0.00 0.00 83 1007.9
20260505095217 9 200 1.6 4.8 0.00 0.00 0.00 81 1007.9
20260505094712 8 173 4.8 8.0 0.00 0.00 0.00 79 1007.9
20260505094209 8 192 6.4 8.0 0.00 0.00 0.00 81 1007.7
20260505093705 8 199 3.2 6.4 0.00 0.00 0.00 82 1007.7
20260505093203 8 206 4.8 6.4 0.00 0.00 0.00 81 1008.0
20260505092659 9 180 0.0 4.8 0.00 0.00 0.00 80 1008.0
20260505092158 8 180 0.0 4.8 0.00 0.00 0.00 79 1008.0
20260505091655 8 225 3.2 6.4 0.00 0.00 0.00 79 1008.1
20260505091153 9 114 0.0 3.2 0.00 0.00 0.00 79 1008.0
20260505090650 9 110 3.2 4.8 0.00 0.00 0.00 78 1008.1
20260505090148 9 101 3.2 9.7 0.00 0.00 0.00 77 1008.4
20260505085645 9 137 4.8 11.3 0.00 0.00 0.00 75 1008.1
20260505085143 9 144 4.8 6.4 0.00 0.00 0.00 75 1008.0
20260505084641 9 162 4.8 8.0 0.00 0.00 0.00 75 1008.5
20260505084139 9 125 3.2 4.8 0.00 0.00 0.00 77 1008.4
20260505083636 9 128 3.2 8.0 0.00 0.00 0.00 77 1008.5
20260505083132 9 155 4.8 6.4 0.00 0.00 0.00 77 1008.5
20260505082628 9 147 8.0 9.7 0.00 0.00 0.00 77 1008.5
20260505082125 9 158 8.0 9.7 0.00 0.00 0.00 77 1008.6
20260505081621 9 144 11.3 14.5 0.00 0.00 0.00 78 1008.6
20260505081119 8 148 8.0 12.9 0.00 0.00 0.00 78 1008.5
20260505080615 8 148 11.3 14.5 0.00 0.00 0.00 78 1008.4
20260505080112 8 147 14.5 17.7 0.00 0.00 0.00 78 1008.5
20260505075608 9 154 11.3 14.5 0.00 0.00 0.00 77 1008.4
20260505075105 9 153 12.9 19.3 0.00 0.00 0.00 77 1008.8
20260505074601 9 153 12.9 17.7 0.00 0.00 0.00 77 1008.6
20260505074059 9 151 8.0 22.5 0.00 0.00 0.00 76 1008.6
20260505073556 9 178 6.4 24.1 0.00 0.00 0.00 76 1008.8
20260505073055 9 161 8.0 19.3 0.00 0.00 0.00 78 1008.9
20260505072550 9 173 14.5 22.5 0.00 0.00 0.00 78 1008.9
20260505072047 9 135 9.7 17.7 0.00 0.00 0.00 78 1008.7
20260505071542 9 160 12.9 17.7 0.00 0.00 0.00 78 1008.8
20260505071041 8 157 11.3 20.9 0.00 0.00 0.00 78 1008.5
20260505070537 8 154 12.9 17.7 0.00 0.00 0.00 78 1008.6
20260505070033 8 129 16.1 19.3 0.00 0.00 0.00 78 1008.5
20260505065529 9 154 14.5 19.3 0.00 0.08 0.08 78 1008.8
20260505065026 9 152 8.0 14.5 0.00 0.08 0.08 78 1008.6
20260505064523 8 120 16.1 19.3 0.00 0.08 0.08 79 1008.4
20260505064021 8 131 12.9 24.1 0.00 0.08 0.08 79 1008.3
20260505063519 9 145 16.1 25.7 0.00 0.08 0.08 79 1008.1
20260505063014 9 158 17.7 29.0 0.00 0.08 0.08 79 1008.0
20260505062511 9 151 12.9 22.5 0.00 0.08 0.08 80 1008.3
20260505062008 9 144 12.9 20.9 0.00 0.08 0.08 80 1008.1
20260505061506 9 156 9.7 19.3 0.00 0.08 0.08 81 1008.3
20260505061004 9 161 9.7 19.3 0.00 0.08 0.08 81 1008.4
20260505060501 9 130 17.7 20.9 0.00 0.08 0.08 81 1008.5
20260505055957 9 130 16.1 17.7 0.00 0.08 0.08 82 1008.3
20260505055453 9 135 14.5 16.1 0.00 0.08 0.08 82 1008.3
20260505054950 9 149 12.9 20.9 0.00 0.08 0.08 83 1008.4
20260505054447 9 134 11.3 19.3 0.00 0.08 0.08 83 1008.1
20260505053945 9 133 14.5 24.1 0.00 0.08 0.08 83 1008.4
20260505053442 9 146 16.1 24.1 0.00 0.08 0.08 84 1008.4
20260505052938 9 122 16.1 17.7 0.00 0.08 0.08 83 1008.1
20260505052436 9 129 12.9 14.5 0.00 0.08 0.08 82 1008.3
20260505051933 9 132 8.0 12.9 0.00 0.08 0.08 80 1007.9
20260505051429 9 152 9.7 14.5 0.00 0.08 0.08 79 1008.1
20260505050928 9 151 8.0 12.9 0.00 0.08 0.08 78 1007.9
20260505050426 9 157 8.0 17.7 0.00 0.08 0.08 78 1008.0
20260505041353 10 156 14.5 17.7 0.00 0.03 0.03 76 1008.3
20260505040850 10 149 12.9 14.5 0.00 0.03 0.03 75 1008.3
20260505040348 10 137 8.0 12.9 0.00 0.03 0.03 75 1008.4
20260505035844 10 134 11.3 17.7 0.05 0.03 0.03 75 1008.1
20260505035340 10 131 12.9 12.9 0.05 0.03 0.03 74 1008.1
20260505034838 10 140 19.3 20.9 0.13 0.03 0.03 71 1008.1
20260505034334 10 144 9.7 24.1 0.05 0.00 0.00 70 1008.0
20260505033831 10 144 16.1 25.7 0.00 0.00 0.00 68 1007.9
20260505033328 11 161 9.7 19.3 0.00 0.00 0.00 64 1008.0
20260505032827 11 157 4.8 11.3 0.00 0.00 0.00 61 1008.1
20260505032322 11 163 9.7 17.7 0.00 0.00 0.00 60 1007.9
20260505031820 11 154 11.3 16.1 0.00 0.00 0.00 61 1007.9
20260505031316 11 160 16.1 16.1 0.00 0.00 0.00 61 1007.7
20260505030814 11 175 8.0 17.7 0.00 0.00 0.00 61 1007.6
20260505030310 11 160 14.5 19.3 0.00 0.00 0.00 61 1007.6
20260505025805 11 150 19.3 27.4 0.00 0.00 0.00 61 1007.7
20260505025304 11 171 12.9 19.3 0.00 0.00 0.00 61 1007.6
20260505024801 11 156 11.3 20.9 0.00 0.00 0.00 61 1007.6
20260505024258 11 163 16.1 27.4 0.00 0.00 0.00 61 1007.3
20260505023755 11 169 24.1 29.0 0.00 0.00 0.00 61 1007.3
20260505023252 11 163 14.5 24.1 0.00 0.00 0.00 60 1007.1
20260505022749 11 169 19.3 32.2 0.00 0.00 0.00 60 1007.2
20260505022247 11 207 9.7 29.0 0.00 0.00 0.00 60 1007.1
20260505021743 11 153 20.9 37.0 0.00 0.00 0.00 60 1007.0
20260505021240 11 197 9.7 32.2 0.00 0.00 0.00 60 1007.0
20260505020736 11 163 41.8 41.8 0.00 0.00 0.00 60 1007.1
20260505020231 11 156 32.2 35.4 0.00 0.00 0.00 60 1007.0
20260505015729 11 169 9.7 27.4 0.00 0.00 0.00 60 1007.2
20260505015226 11 158 8.0 24.1 0.00 0.00 0.00 60 1007.6
20260505014723 11 135 12.9 27.4 0.00 0.00 0.00 61 1007.5
20260505014220 11 168 12.9 38.6 0.00 0.00 0.00 60 1007.5
20260505013717 11 181 8.0 30.6 0.00 0.00 0.00 60 1007.5
20260505013214 11 175 9.7 32.2 0.00 0.00 0.00 60 1007.5
20260505012712 11 160 20.9 27.4 0.00 0.00 0.00 60 1007.7
20260505012209 11 139 6.4 19.3 0.00 0.00 0.00 61 1007.7
20260505011705 11 188 9.7 30.6 0.00 0.00 0.00 61 1007.7
20260505011202 11 195 19.3 29.0 0.00 0.00 0.00 61 1008.0
20260505010657 12 158 11.3 17.7 0.00 0.00 0.00 59 1008.3
20260505010154 11 167 16.1 29.0 0.00 0.00 0.00 60 1007.9
20260505005650 11 160 20.9 33.8 0.00 0.00 0.00 60 1007.9
20260505005148 11 162 29.0 32.2 0.00 0.00 0.00 60 1007.9